Location: Courçay
(47.2523°N, 0.8761°E)
Time: 21:22:54
(UTC+00:00)

Cosmos 371 Rocket - Pass Details

Date: 18 November 2025
Orbit: 674 x 690 km, 74.0° (Epoch: 10 December)

Event Time Altitude Azimuth Distance (km) Brightness Sun altitude
Rises 18:42:13 0° 208° (SSW) 3,031 7.0 -24.3°
Reaches altitude 10° 18:44:31 10° 211° (SSW) 2,123 6.2 -24.7°
Maximum altitude 18:49:17 66° 294° (WNW) 749 3.5 -25.5°
Enters shadow 18:50:33 46° 357° (N) 921 3.8 -25.7°
